Weather in Kvareli

Georgia     41°57′08″N   45°49′06″E
temp.,
°C
wind,
m/s
gust,
m/s
humid.,
%
clouds,
%
prec.,
mm/h
press.,
hPa
HPBL,
m
13 may, thu
thu1301:00+13nne32550 0.0 101729
04:00+13nne33510 0.0 101737
07:00+15nne22553 0.1 101751
10:00+21ssw21423 0.1 1016521
13:00+24s32372 0.0 1015876
16:00+25s33355 0.0 1014943
19:00+21ene115999 0.1 101531
22:00+17nne3260100 0.2 101830
14 may, fri
fri1401:00+16nne33525 0.0 101835
04:00+16nne33470 0.0 101837
07:00+17nne22550 0.0 101848
10:00+23ssw21430 0.0 1017617
13:00+26s35350 0.0 10171491
16:00+26sse33300 0.0 10151373
19:00+22e23520 0.0 101666
22:00+18nne334826 0.0 101742
15 may, sat
sat1501:00+17nne335434 0.0 101737
04:00+16nne32570 0.0 101733
07:00+17nne22580 0.0 101754
10:00+23ssw22420 0.0 1017922
13:00+25s32290 0.0 10161596
16:00+25sse32294 0.0 10141655
19:00+21e3348100 0.0 101557
22:00+18ne325099 0.1 101627
16 may, sun
sun1601:00+17nne334868 0.0 101637
04:00+15nne32445 0.0 101631
07:00+16nne22479 0.0 101642
10:00+22ssw23310 0.0 10151069
13:00+25sse44210 0.0 10131767
16:00+25sse34190 0.0 10121759
19:00+21e11390 0.0 101220
22:00+17nne433322 0.0 101438
17 may, mon
mon1701:00+17nne333481 0.0 101343
04:00+15nne32375 0.0 101333
07:00+17nne224682 0.0 101244
10:00+22sw2132100 0.0 1011611
13:00+26ssw32265 0.0 10101186
16:00+27s222610 0.0 10091164
19:00+23se11464 0.0 100711
22:00+19ne324336 0.0 101124